Content
SEND FEEDBACK

Daily
Averages
Monthly
Summary
United States of America

STATEN ISLAND, NEW YORK


Home > North America > United States > New York
Elevation: 152 feet     Latitude: 40 35N     Longitude: 074 09W

WEATHER
 
SELECT A DAY
Number of Records: 194,093;   Date Range: 1/1/95 - 12/25/14
 
SHARE

PRINT THIS DATA

[ ← Previous Day ]
WEATHER ALMANAC - JULY 8, 2013
[ Next Day → ]
[ °C ]   °F
We're sorry. There is no daily almanac available for Staten Island, New York on July 8, 2013.
WEATHER BY HOUR - JULY 8, 2013
[ °C ]   °F
Local TimeTemperatureDewpointHumidityBarometerVisibilityWind DirectionWind SpeedGust SpeedPrecipitationEventsConditions
1:51 AM75.9 °F66.9 °F74 %30.00 in10.0 miWSW (240°)11.5 mphMostly Cloudy
2:51 AM75.0 °F66.0 °F73 %29.99 in10.0 miWSW (240°)11.5 mphMostly Cloudy
3:51 AM73.9 °F66.9 °F79 %29.99 in10.0 miWest (260°)11.5 mphMostly Cloudy
4:51 AM73.0 °F66.9 °F81 %30.00 in10.0 miWSW (250°)10.4 mphMostly Cloudy
5:51 AM73.0 °F66.9 °F81 %30.01 in10.0 miWSW (240°)8.1 mphMostly Cloudy
6:51 AM73.0 °F66.9 °F81 %30.03 in10.0 miWSW (240°)6.9 mphMostly Cloudy
7:51 AM75.9 °F68.0 °F76 %30.04 in10.0 miWSW (240°)9.2 mphMostly Cloudy
8:51 AM80.1 °F68.0 °F67 %30.04 in10.0 miWest (280°)9.2 mphMostly Cloudy
9:51 AM82.0 °F69.1 °F65 %30.03 in10.0 miWSW (240°)9.2 mphMostly Cloudy
10:51 AM84.9 °F66.9 °F55 %30.03 in10.0 miVariable4.6 mphMostly Cloudy
11:51 AM87.1 °F66.9 °F51 %30.03 in10.0 miWSW (240°)6.9 mphMostly Cloudy
12:51 PM88.0 °F66.9 °F49 %30.02 in10.0 miWest (270°)10.4 mphMostly Cloudy
1:51 PM89.1 °F66.0 °F46 %30.01 in10.0 miWNW (290°)11.5 mph17.3 mphMostly Cloudy
2:51 PM91.0 °F66.0 °F44 %29.99 in10.0 miWest (280°)11.5 mph24.2 mphScattered Clouds
3:51 PM91.0 °F64.9 °F42 %29.99 in10.0 miWSW (250°)13.8 mph20.7 mphScattered Clouds
4:51 PM89.1 °F64.9 °F45 %29.98 in10.0 miWSW (240°)12.7 mphMostly Cloudy
5:51 PM88.0 °F64.9 °F46 %29.96 in10.0 miWSW (250°)10.4 mphMostly Cloudy
6:51 PM87.1 °F66.0 °F49 %29.97 in10.0 miWSW (240°)13.8 mphMostly Cloudy
7:51 PM86.0 °F64.9 °F49 %29.99 in10.0 miWSW (240°)12.7 mph23.0 mphMostly Cloudy
8:45 PM82.4 °F66.2 °F58 %10.0 miWSW (240°)12.7 mphScattered Clouds
8:51 PM82.9 °F66.9 °F58 %30.01 in10.0 miWSW (240°)12.7 mphScattered Clouds
9:51 PM81.0 °F63.0 °F54 %30.04 in10.0 miSW (230°)11.5 mphMostly Cloudy
10:51 PM79.0 °F64.0 °F60 %30.04 in10.0 miSW (220°)9.2 mphMostly Cloudy
11:51 PM78.1 °F64.9 °F64 %30.04 in10.0 miSW (230°)10.4 mphScattered Clouds
Hourly data recorded from KEWR, located miles away from Staten Island, New York







STORIES FROM OUR PARTNERS